Find Starlink 31295

NORAD ID: 59095 Int'l Des: 2024-041 Owner: SPXS Country: US Constellation: starlink operational
LEOCIRCULAR

当前视图

正在加载3D地球...

About Starlink 31295

Starlink 31295 (NORAD 59095) is a starlink constellation satellite (v2 mini) launched Feb 29, 2024 by SPXS of US. It operates in LEO, CIRCULAR orbit with a mass of 730.00 kg.

关于 Starlink 31295

正在加载描述...

即将过境

Passes for default location (London). Set your location on the main map for personalized predictions.

高度历史

Loading altitude history...

两行轨道根数

1 59095U 24041X 26164.62353030 .00000462 00000-0 26325-4 0 9994
2 59095 43.0059 128.8944 0002679 13.0883 347.0037 15.27582258128947
Epoch: Jun 13, 2026 • Age: 74 hours

当前状态

高度 484.8 km
速度 7.63 km/s
星下点 37.53°N, 72.98°E
发射日期 Feb 29, 2024
运行时间 2.2 years
类型 internet

技术详情

分类 Payload
质量 730.00 kg
干质量 700.00 kg
总质量 730.00 kg
长度 0.30 m
直径 4.10 m
跨度 29.00 m
形状 Box + pan
制造商 SPXS
平台类型 Starlink V2M
阶段状态 In Orbit
所有者/国家 SPXS/US

Most Searched